SWA121 PHNL-PHTO

Flight info

Callsign SWA121
Flight time 0h 40m
Altitude 27000
Route PALAY3 LNY V16 UPP V2 ITO
Aircraft B738/M-SDE2E3FGHIRWXY/LB1

Departure

Time 2026-04-22 01:32
Airport Daniel K. Inouye International Airport (PHNL)

Arrival

Time 2026-04-22 02:12
Airport Hilo International Airport (PHTO)
Time Latitude Longitude Altitude Speed Heading
2026-04-22 01:11 21.33008 -157.92065 23 ft 0 kts 98°
2026-04-22 01:22 21.33011 -157.92081 27 ft 4 kts 99°
2026-04-22 01:22 21.33015 -157.92109 23 ft 4 kts 91°
2026-04-22 01:23 21.33010 -157.92135 23 ft 4 kts 48°
2026-04-22 01:23 21.32992 -157.92146 26 ft 1 kts
2026-04-22 01:26 21.32998 -157.92146 27 ft 4 kts 359°
2026-04-22 01:26 21.33005 -157.92169 25 ft 5 kts 244°
2026-04-22 01:26 21.32959 -157.92180 24 ft 9 kts 183°
2026-04-22 01:26 21.32897 -157.92181 23 ft 9 kts 180°
2026-04-22 01:27 21.32836 -157.92176 24 ft 9 kts 180°
2026-04-22 01:27 21.32781 -157.92192 24 ft 8 kts 223°
2026-04-22 01:27 21.32773 -157.92253 23 ft 8 kts 269°
2026-04-22 01:27 21.32774 -157.92324 23 ft 15 kts 270°
2026-04-22 01:28 21.32775 -157.92469 23 ft 21 kts 270°
2026-04-22 01:28 21.32774 -157.92620 23 ft 20 kts 269°
2026-04-22 01:28 21.32756 -157.92768 25 ft 20 kts 249°
2026-04-22 01:28 21.32743 -157.92912 23 ft 19 kts 270°
2026-04-22 01:29 21.32743 -157.93054 23 ft 19 kts 270°
2026-04-22 01:29 21.32743 -157.93191 23 ft 18 kts 270°
2026-04-22 01:29 21.32742 -157.93323 24 ft 18 kts 269°
2026-04-22 01:29 21.32743 -157.93465 23 ft 20 kts 271°
2026-04-22 01:30 21.32742 -157.93625 24 ft 22 kts 270°
2026-04-22 01:30 21.32742 -157.93796 24 ft 24 kts 269°
2026-04-22 01:30 21.32742 -157.93968 24 ft 23 kts 270°
2026-04-22 01:30 21.32673 -157.94103 24 ft 22 kts 207°
2026-04-22 01:31 21.32561 -157.94156 25 ft 12 kts 171°
2026-04-22 01:31 21.32526 -157.94021 24 ft 45 kts 89°
2026-04-22 01:31 21.32527 -157.93416 24 ft 115 kts 90°
2026-04-22 01:31 21.32523 -157.92350 78 ft 164 kts 91°
2026-04-22 01:32 21.32477 -157.91103 733 ft 169 kts 104°
2026-04-22 01:32 21.31919 -157.89984 1351 ft 176 kts 127°
2026-04-22 01:32 21.31144 -157.88947 1959 ft 186 kts 126°
2026-04-22 01:32 21.30477 -157.87644 2208 ft 212 kts 117°
2026-04-22 01:33 21.29608 -157.86260 2399 ft 234 kts 126°
2026-04-22 01:33 21.28609 -157.84796 2619 ft 255 kts 125°
2026-04-22 01:33 21.27549 -157.83207 3043 ft 268 kts 124°
2026-04-22 01:33 21.26466 -157.81564 3779 ft 271 kts 124°
2026-04-22 01:34 21.25380 -157.79904 4590 ft 272 kts 125°
2026-04-22 01:34 21.24289 -157.78229 5328 ft 276 kts 124°
2026-04-22 01:34 21.23186 -157.76530 6103 ft 279 kts 125°
2026-04-22 01:34 21.22071 -157.74808 6821 ft 283 kts 125°
2026-04-22 01:35 21.20944 -157.73065 7555 ft 286 kts 125°
2026-04-22 01:35 21.19803 -157.71301 8310 ft 290 kts 125°
2026-04-22 01:35 21.18648 -157.69515 9095 ft 294 kts 125°
2026-04-22 01:35 21.17492 -157.67726 9881 ft 298 kts 125°
2026-04-22 01:36 21.16295 -157.65876 10430 ft 311 kts 125°
2026-04-22 01:36 21.15013 -157.63894 10610 ft 336 kts 125°
2026-04-22 01:36 21.13651 -157.61789 11066 ft 349 kts 125°
2026-04-22 01:36 21.12260 -157.59638 11722 ft 354 kts 125°
2026-04-22 01:37 21.10844 -157.57452 12449 ft 358 kts 124°
2026-04-22 01:37 21.09469 -157.55206 13158 ft 363 kts 122°
2026-04-22 01:37 21.08142 -157.52876 13854 ft 369 kts 121°
2026-04-22 01:37 21.06819 -157.50498 14492 ft 374 kts 120°
2026-04-22 01:38 21.05483 -157.48091 15179 ft 378 kts 120°
2026-04-22 01:38 21.04128 -157.45658 15862 ft 382 kts 120°
2026-04-22 01:38 21.02753 -157.43202 16534 ft 387 kts 121°
2026-04-22 01:38 21.01357 -157.40718 17189 ft 392 kts 121°
2026-04-22 01:39 20.99941 -157.38208 17834 ft 396 kts 121°
2026-04-22 01:39 20.98506 -157.35669 18449 ft 401 kts 121°
2026-04-22 01:39 20.97057 -157.33107 19002 ft 405 kts 121°
2026-04-22 01:39 20.95592 -157.30520 19576 ft 408 kts 121°
2026-04-22 01:40 20.94115 -157.27913 20147 ft 412 kts 121°
2026-04-22 01:40 20.92626 -157.25286 20718 ft 415 kts 121°
2026-04-22 01:40 20.91120 -157.22629 21286 ft 419 kts 121°
2026-04-22 01:40 20.89603 -157.19956 21822 ft 423 kts 121°
2026-04-22 01:41 20.88067 -157.17249 22357 ft 427 kts 121°
2026-04-22 01:41 20.86520 -157.14523 22892 ft 431 kts 121°
2026-04-22 01:41 20.84959 -157.11774 23424 ft 434 kts 121°
2026-04-22 01:41 20.83385 -157.09004 23906 ft 437 kts 121°
2026-04-22 01:42 20.81802 -157.06220 24353 ft 440 kts 121°
2026-04-22 01:42 20.80209 -157.03419 24767 ft 443 kts 121°
2026-04-22 01:42 20.78602 -157.00593 25173 ft 447 kts 121°
2026-04-22 01:42 20.76978 -156.97742 25581 ft 450 kts 121°
2026-04-22 01:43 20.75396 -156.94846 26002 ft 453 kts 119°
2026-04-22 01:43 20.73895 -156.91868 26415 ft 456 kts 117°
2026-04-22 01:43 20.72423 -156.88864 26870 ft 458 kts 117°
2026-04-22 01:43 20.70934 -156.85842 27091 ft 460 kts 117°
2026-04-22 01:44 20.69429 -156.82834 27072 ft 459 kts 118°
2026-04-22 01:44 20.67918 -156.79833 27080 ft 458 kts 118°
2026-04-22 01:44 20.66419 -156.76825 27081 ft 459 kts 117°
2026-04-22 01:44 20.64929 -156.73814 27071 ft 459 kts 117°
2026-04-22 01:45 20.63439 -156.70798 27053 ft 460 kts 117°
2026-04-22 01:45 20.61949 -156.67780 27046 ft 460 kts 117°
2026-04-22 01:45 20.60454 -156.64760 27035 ft 460 kts 117°
2026-04-22 01:45 20.58960 -156.61745 27030 ft 460 kts 117°
2026-04-22 01:46 20.57461 -156.58724 27038 ft 460 kts 117°
2026-04-22 01:46 20.55965 -156.55710 27038 ft 460 kts 117°
2026-04-22 01:46 20.54489 -156.52740 27032 ft 459 kts 117°
2026-04-22 01:46 20.52995 -156.49734 27038 ft 458 kts 117°
2026-04-22 01:47 20.51503 -156.46732 27025 ft 458 kts 117°
2026-04-22 01:47 20.50011 -156.43733 27028 ft 457 kts 117°
2026-04-22 01:47 20.48520 -156.40740 27030 ft 457 kts 117°
2026-04-22 01:47 20.47024 -156.37751 27028 ft 457 kts 117°
2026-04-22 01:48 20.45523 -156.34761 27016 ft 454 kts 117°
2026-04-22 01:48 20.44046 -156.31824 26825 ft 447 kts 117°
2026-04-22 01:48 20.42590 -156.28926 26473 ft 440 kts 117°
2026-04-22 01:48 20.41147 -156.26056 26025 ft 437 kts 117°
2026-04-22 01:49 20.39719 -156.23215 25591 ft 434 kts 117°
2026-04-22 01:49 20.38298 -156.20389 25139 ft 431 kts 117°
2026-04-22 01:49 20.36886 -156.17580 24674 ft 429 kts 117°
2026-04-22 01:49 20.35480 -156.14785 24208 ft 427 kts 117°
2026-04-22 01:50 20.34078 -156.11999 23745 ft 426 kts 117°
2026-04-22 01:50 20.32684 -156.09232 23231 ft 424 kts 117°
2026-04-22 01:50 20.31295 -156.06474 22747 ft 420 kts 117°
2026-04-22 01:50 20.29917 -156.03742 22277 ft 417 kts 117°
2026-04-22 01:51 20.28551 -156.01032 21812 ft 414 kts 117°
2026-04-22 01:51 20.27193 -155.98340 21358 ft 411 kts 117°
2026-04-22 01:51 20.25844 -155.95668 20916 ft 408 kts 117°
2026-04-22 01:51 20.24505 -155.93015 20466 ft 405 kts 117°
2026-04-22 01:52 20.23174 -155.90381 20032 ft 403 kts 117°
2026-04-22 01:52 20.21849 -155.87762 19585 ft 401 kts 117°
2026-04-22 01:52 20.20698 -155.85073 19151 ft 398 kts 107°
2026-04-22 01:52 20.20003 -155.82242 18762 ft 393 kts 97°
2026-04-22 01:53 20.19752 -155.79404 18382 ft 388 kts 91°
2026-04-22 01:53 20.19627 -155.76540 17898 ft 387 kts 90°
2026-04-22 01:53 20.19513 -155.73692 17457 ft 384 kts 90°
2026-04-22 01:53 20.19390 -155.70859 17019 ft 381 kts 91°
2026-04-22 01:54 20.19256 -155.68050 16585 ft 378 kts 91°
2026-04-22 01:54 20.19114 -155.65263 16162 ft 376 kts 91°
2026-04-22 01:54 20.18969 -155.62493 15743 ft 373 kts 92°
2026-04-22 01:54 20.18824 -155.59750 15337 ft 371 kts 92°
2026-04-22 01:55 20.18682 -155.57021 14944 ft 368 kts 92°
2026-04-22 01:55 20.18545 -155.54314 14563 ft 365 kts 92°
2026-04-22 01:55 20.18409 -155.51629 14166 ft 363 kts 92°
2026-04-22 01:55 20.18274 -155.48951 13729 ft 362 kts 92°
2026-04-22 01:56 20.18138 -155.46283 13283 ft 359 kts 92°
2026-04-22 01:56 20.18003 -155.43638 12857 ft 357 kts 92°
2026-04-22 01:56 20.17867 -155.41005 12442 ft 354 kts 92°
2026-04-22 01:56 20.17778 -155.39277 12176 ft 352 kts 92°
2026-04-22 01:57 20.17646 -155.36691 11810 ft 348 kts 93°
2026-04-22 01:57 20.17515 -155.34126 11424 ft 346 kts 93°
2026-04-22 01:57 20.17384 -155.31581 11037 ft 343 kts 93°
2026-04-22 01:57 20.17255 -155.29053 10653 ft 341 kts 93°
2026-04-22 01:58 20.17126 -155.26563 10487 ft 332 kts 93°
2026-04-22 01:58 20.16786 -155.24180 10311 ft 322 kts 111°
2026-04-22 01:58 20.15639 -155.22200 10190 ft 311 kts 134°
2026-04-22 01:58 20.13989 -155.20795 10061 ft 300 kts 153°
2026-04-22 01:59 20.12133 -155.19853 9866 ft 294 kts 157°
2026-04-22 01:59 20.10262 -155.18989 9551 ft 292 kts 158°
2026-04-22 01:59 20.08406 -155.18139 9262 ft 290 kts 158°
2026-04-22 01:59 20.06560 -155.17286 8956 ft 288 kts 157°
2026-04-22 02:00 20.04744 -155.16438 8630 ft 282 kts 157°
2026-04-22 02:00 20.02946 -155.15592 8103 ft 282 kts 157°
2026-04-22 02:00 20.01157 -155.14747 7606 ft 281 kts 157°
2026-04-22 02:00 19.99373 -155.13904 7112 ft 281 kts 156°
2026-04-22 02:01 19.97595 -155.13064 6642 ft 276 kts 156°
2026-04-22 02:01 19.95868 -155.12252 6161 ft 267 kts 156°
2026-04-22 02:01 19.94223 -155.11478 5671 ft 257 kts 155°
2026-04-22 02:01 19.92824 -155.10371 5304 ft 242 kts 127°
2026-04-22 02:02 19.92216 -155.08805 5008 ft 230 kts 95°
2026-04-22 02:02 19.92447 -155.07181 4767 ft 220 kts 65°
2026-04-22 02:02 19.93443 -155.05986 4495 ft 213 kts 30°
2026-04-22 02:02 19.94822 -155.05647 4231 ft 206 kts 354°
2026-04-22 02:03 19.96102 -155.06234 3980 ft 201 kts 316°
2026-04-22 02:03 19.96760 -155.07490 3727 ft 196 kts 278°
2026-04-22 02:03 19.96574 -155.08894 3492 ft 194 kts 245°
2026-04-22 02:03 19.95715 -155.09970 3240 ft 194 kts 207°
2026-04-22 02:04 19.93100 -155.10539 2791 ft 193 kts 182°
2026-04-22 02:04 19.92293 -155.10593 2645 ft 191 kts 180°
2026-04-22 02:07 19.92245 -155.10596 2638 ft 191 kts 180°
2026-04-22 02:07 19.90911 -155.10686 2537 ft 195 kts 180°
2026-04-22 02:07 19.89557 -155.10671 2490 ft 192 kts 174°
2026-04-22 02:07 19.88247 -155.10594 2496 ft 187 kts 174°
2026-04-22 02:08 19.86981 -155.10405 2492 ft 181 kts 159°
2026-04-22 02:08 19.85802 -155.09920 2512 ft 182 kts 156°
2026-04-22 02:08 19.84631 -155.09399 2429 ft 184 kts 155°
2026-04-22 02:08 19.83414 -155.08956 2339 ft 187 kts 168°
2026-04-22 02:09 19.82089 -155.08890 2165 ft 193 kts 179°
2026-04-22 02:09 19.80756 -155.08919 1987 ft 189 kts 178°
2026-04-22 02:09 19.79479 -155.08952 1740 ft 180 kts 179°
2026-04-22 02:09 19.78246 -155.09002 1426 ft 176 kts 179°
2026-04-22 02:10 19.77056 -155.09052 1187 ft 165 kts 178°
2026-04-22 02:10 19.76009 -155.09086 1175 ft 146 kts 178°
2026-04-22 02:10 19.75011 -155.09104 924 ft 138 kts 174°
2026-04-22 02:10 19.74040 -155.09027 732 ft 147 kts 167°
2026-04-22 02:11 19.73122 -155.08653 546 ft 139 kts 130°
2026-04-22 02:11 19.72546 -155.07797 482 ft 149 kts 115°
2026-04-22 02:11 19.72222 -155.06801 320 ft 135 kts 92°
2026-04-22 02:11 19.72138 -155.05800 115 ft 141 kts 85°
2026-04-22 02:12 19.72145 -155.04794 49 ft 124 kts 91°
2026-04-22 02:12 19.72142 -155.04105 52 ft 63 kts 90°
2026-04-22 02:12 19.72143 -155.03870 53 ft 18 kts 89°